Regional Weather Roundup
Issued by NWS

Home | Current Version | Previous Version | Graphics & Text | Print | Product List | Glossary On
Versions: 1 2 3 4 5 6 7 8 9 10 11 12 13 14 15 16 17 18 19 20 21 22 23 24 25 26 27 28 29 30 31 32 33 34 35 36 37 38 39 40 41 42 43 44 45 46 47 48 49 50
000
ASUS43 KBIS 252110
RWRND

NORTH DAKOTA REGIONAL WEATHER ROUNDUP
NATIONAL WEATHER SERVICE BISMARCK ND
400 PM CDT TUE APR 25 2017

NOTE: "FAIR" INDICATES FEW OR NO CLOUDS BELOW 12,000 FEET WITH NO
SIGNIFICANT WEATHER AND/OR OBSTRUCTIONS TO VISIBILITY.


NDZ001>003-009>011-017-252200-
NORTHWEST NORTH DAKOTA

CITY           SKY/WX    TMP DP  RH WIND       PRES   REMARKS
WILLISTON      PTSUNNY   41  24  51 N12G17    29.97S
MINOT          CLOUDY    41  26  55 N18       29.91F
MINOT AFB      PTSUNNY   41  25  52 NE22G29   29.91F
$$

NDZ018>021-031>035-040>046-252200-
SOUTHWEST NORTH DAKOTA

CITY           SKY/WX    TMP DP  RH WIND       PRES   REMARKS
BISMARCK       CLOUDY    34  25  69 N16       29.89R
DICKINSON      CLOUDY    29  23  78 NE14      29.88R WCI  18
GARRISON         N/A     36  24  62 NE14G21   29.90S
HETTINGER ARPT CLOUDY    28  25  88 N17       29.88R WCI  16
$$

NDZ004>008-012>016-024-026-027-054-252200-
NORTHEAST NORTH DAKOTA

CITY           SKY/WX    TMP DP  RH WIND       PRES   REMARKS
GRAND FORKS    CLOUDY    37  30  75 N25G33    29.83F
GRND FRKS AFB  CLOUDY    34  27  75 NE25G31   29.84F
DEVILS LAKE    CLOUDY    32  26  78 NE20      29.88F
$$

NDZ022-023-025-028>030-036>039-047>053-252200-
SOUTHEAST NORTH DAKOTA

CITY           SKY/WX    TMP DP  RH WIND       PRES   REMARKS
FARGO          CLOUDY    38  31  76 N23G35    29.75S
JAMESTOWN      CLOUDY    32  27  81 N22G30    29.81R WCI  19
$$





USA.gov is the U.S. government's official web portal to all federal, state and local government web resources and services.